[[{"header":{"parameterUnit":"m.s-1","parameterCategory":2,"la1":30.2991,"la2":30.254,"lo1":-89.0895,"lo2":-89.0444,"dy":0.0017,"dx":0.0017,"nx":28,"ny":28,"refTime":"2025-02-09T03:00:00:Z","depth":"0","parameterNumber":2,"parameterNumberName":"U-component_of_CURRENTS"},"data":[0,0,0,0,0,0,0,0,0,0,0,0,0,0,0,0,0,0,0,0,0,0,0,0,0,0,0,0,0,0,0,0,0,0,0,0,0,0,0,0,0,0,0,0,0,0,0,0,0,0,0,0,0,0,0,0,0,0,0.1634,0.1635,0,0.1671,0.1671,0.1671,0.1674,0.1673,0.1673,0.1673,0.1689,0.169,0.1691,0,0,0,0,0,0,0,0,0,0,0,0,0,0.1582,0.1583,0.1634,0.1635,0.1636,0.1671,0.1671,0.1671,0.1674,0.1673,0.1673,0.1672,0.1689,0.169,0.1691,0,0,0,0,0,0,0,0,0,0,0,0,0,0.1609,0.1583,0.1634,0.1642,0.1643,0.1671,0.1671,0.1672,0.1674,0.1673,0.1673,0.1672,0.1689,0.169,0.1691,0.1707,0,0,0.1694,0.1695,0,0,0,0,0,0,0,0,0.1607,0.1611,0.164,0.1641,0.1643,0.1668,0.1659,0.1683,0.1674,0.1661,0.1673,0.1672,0.1681,0.1683,0.169,0.1708,0.1708,0.1694,0.1695,0.1695,0.1696,0,0,0,0,0,0,0,0.1605,0.1609,0.1648,0.1641,0.1642,0.1648,0.1651,0.1663,0.1672,0.1662,0.1662,0.1668,0.1682,0.1688,0.169,0.1708,0.1694,0.1695,0.1696,0.1696,0.1755,0.1756,0,0,0,0,0,0,0.1603,0.1607,0.1646,0.1649,0.1625,0.165,0.1653,0.1659,0.1672,0.1674,0.1669,0.1668,0.1687,0.1689,0.169,0.172,0.1695,0.1696,0.1697,0.1754,0.1755,0.1756,0,0,0,0,0,0,0.1602,0.1606,0.1645,0.163,0.1635,0.1651,0.1658,0.166,0.1669,0.1678,0.1679,0.1676,0.1687,0.1689,0.1708,0.172,0.1697,0.1698,0.1753,0.1754,0.1756,0.1773,0,0,0,0,0,0,0.16,0.1606,0.161,0.163,0.1636,0.1666,0.1659,0.1662,0.1674,0.1674,0.1685,0.1685,0.1686,0.1707,0.1709,0.1721,0.1699,0.1752,0.1754,0.1755,0.1771,0.1774,0.1777,0,0,0,0,0,0.1598,0.1606,0.161,0.1615,0.1642,0.1667,0.1671,0.1679,0.1675,0.1684,0.1692,0.1685,0.1719,0.1708,0.1711,0.1724,0.1751,0.1753,0.1755,0.1769,0.1774,0.1777,0,0,0,0,0,0,0.1583,0.1608,0.1613,0.1627,0.1648,0.1667,0.1677,0.1683,0.1696,0.1695,0.1698,0.17,0.1722,0.1723,0.1711,0.1747,0.1734,0.1737,0.1744,0.1748,0.1751,0.1758,0.17,0,0,0,0,0,0.1583,0.1597,0.1621,0.1633,0.1643,0.166,0.1671,0.168,0.1695,0.17,0.1707,0.1718,0.1733,0.174,0.1753,0.1773,0.1829,0.1783,0.1786,0.1789,0.1797,0.1895,0.1909,0.1763,0.1763,0.1763,0,0,0.1579,0.1596,0.1602,0.1631,0.1645,0.1666,0.1666,0.1686,0.1702,0.17,0.1721,0.173,0.1742,0.1765,0.1774,0.1766,0.1866,0.1791,0.1794,0.1801,0.1899,0.1913,0.1926,0.1764,0.1764,0.1764,0,0,0.1582,0.1595,0.1609,0.1629,0.1658,0.1671,0.1678,0.1702,0.1712,0.1736,0.1739,0.1758,0.1778,0.1791,0.1799,0.1829,0.1881,0.1832,0.1853,0.1947,0.1961,0.1973,0.2092,0.2115,0.1832,0.1832,0.1832,0,0.1574,0.1599,0.1616,0.1639,0.1656,0.1674,0.1694,0.171,0.1737,0.1756,0.1744,0.1795,0.1791,0.1834,0.1836,0.1836,0.1914,0.1834,0.1954,0.1966,0.1979,0.2098,0.2123,0.1833,0.1833,0.1833,0.1833,0,0.1592,0.1613,0.1624,0.1658,0.1677,0.1699,0.1725,0.1744,0.1755,0.1779,0.1823,0.183,0.1869,0.1861,0.1852,0.1931,0.1969,0.1949,0.1945,0.1995,0.2117,0.2143,0.1835,0.1834,0.1834,0.1834,0,0,0.1573,0.1625,0.163,0.1654,0.169,0.1712,0.1738,0.1779,0.1823,0.1835,0.1906,0.1897,0.1921,0.1932,0.1933,0.1989,0.2132,0.2004,0.2009,0.2126,0.2385,0.2381,0.241,0.2146,0.2149,0.2152,0.2447,0,0.1582,0.1625,0.1648,0.169,0.1714,0.1742,0.1778,0.1817,0.1855,0.1932,0.1947,0.2016,0.1945,0.199,0.2028,0.2117,0.2197,0.2056,0.2316,0.2324,0.2317,0.2437,0.2385,0.264,0.2472,0.2477,0.248,0,0.1594,0.1623,0.1661,0.1725,0.174,0.1769,0.1842,0.1879,0.1974,0.2018,0.2075,0.2119,0.2201,0.2145,0.2312,0.2237,0.2314,0.2367,0.238,0.2385,0.2367,0.2558,0.2694,0.2598,0.252,0.2516,0.2513,0,0.1581,0.1636,0.1667,0.1685,0.1755,0.1783,0.1824,0.1904,0.1957,0.2099,0.2181,0.227,0.2361,0.2446,0.252,0.2457,0.2731,0.2664,0.2738,0.274,0.275,0.2745,0.2822,0.2807,0.2807,0.2806,0.2805,0,0.1588,0.1615,0.1667,0.1688,0.1741,0.1793,0.1866,0.1931,0.205,0.2154,0.2235,0.2348,0.2443,0.2585,0.2627,0.2781,0.2829,0.2786,0.2825,0.2755,0.2748,0.2704,0.2648,0.2817,0.2814,0.2812,0.281,0,0.1575,0.1606,0.1647,0.1714,0.1735,0.1777,0.1871,0.1944,0.2064,0.2217,0.2281,0.2463,0.2659,0.2752,0.2943,0.2941,0.3009,0.3108,0.3029,0.305,0.2976,0.2923,0.2973,0.2883,0.326,0.3262,0.3263,0,0.1574,0.1592,0.165,0.1676,0.1707,0.1768,0.1824,0.1935,0.2029,0.2277,0.2376,0.261,0.2757,0.3042,0.3122,0.3272,0.3112,0.3294,0.3125,0.3006,0.2978,0.2812,0.2717,0.3176,0.3177,0.3178,0.3178,0,0.1571,0.1589,0.1624,0.1675,0.1726,0.1778,0.1876,0.194,0.2114,0.2254,0.248,0.2621,0.2916,0.3051,0.3243,0.3304,0.3138,0.3308,0.3217,0.2957,0.2755,0.2674,0.2959,0.3183,0.3182,0.3182,0.3182,0.3182,0.1568,0.1587,0.1635,0.1682,0.173,0.1794,0.1827,0.195,0.2081,0.2288,0.2476,0.2665,0.2926,0.3181,0.3231,0.3274,0.3182,0.3194,0.3165,0.3025,0.2841,0.3139,0.3358,0.3358,0.3359,0.3359,0.336,0,0.1566,0.1592,0.1642,0.1691,0.1728,0.1766,0.1868,0.1902,0.2019,0.2234,0.2404,0.2685,0.287,0.3043,0.3212,0.3145,0.2977,0.3065,0.2815,0.2744,0.3077,0.2969,0.3072,0.3072,0.3072,0.3072,0.3072,0.3072,0.157,0.1607,0.1635,0.1678,0.1705,0.1741,0.1777,0.1835,0.1954,0.213,0.2282,0.2452,0.2775,0.307,0.3094,0.3024,0.2748,0.2684,0.2602,0.2831,0.2837,0.2844,0.2726,0.2777,0.2777,0.2161,0.2157,0.2153]},{"header":{"parameterUnit":"m.s-1","parameterCategory":2,"la1":30.2991,"la2":30.254,"lo1":-89.0895,"lo2":-89.0444,"dy":0.0017,"dx":0.0017,"nx":28,"ny":28,"refTime":"2025-02-09T03:00:00:Z","depth":"0","parameterNumber":3,"parameterNumberName":"V-component_of_CURRENTS"},"data":[0,0,0,0,0,0,0,0,0,0,0,0,0,0,0,0,0,0,0,0,0,0,0,0,0,0,0,0,0,0,0,0,0,0,0,0,0,0,0,0,0,0,0,0,0,0,0,0,0,0,0,0,0,0,0,0,0,0,0.007,0.0069,0,-0.0004,-0.0005,-0.0006,-0.0049,-0.005,-0.005,-0.005,-0.0151,-0.0153,-0.0156,0,0,0,0,0,0,0,0,0,0,0,0,0,0.0149,0.0148,0.007,0.0069,0.0068,-0.0004,-0.0005,-0.0006,-0.0049,-0.005,-0.005,-0.005,-0.015,-0.0153,-0.0156,0,0,0,0,0,0,0,0,0,0,0,0,0,0.0099,0.0147,0.007,0.0038,0.0034,-0.0003,-0.0005,-0.0006,-0.0049,-0.005,-0.005,-0.005,-0.0149,-0.0153,-0.0157,-0.0174,0,0,-0.0168,-0.017,0,0,0,0,0,0,0,0,0.0102,0.0096,0.0043,0.004,0.0036,-0.0018,-0.0014,-0.0064,-0.0049,-0.0018,-0.005,-0.005,-0.0109,-0.0116,-0.0129,-0.0179,-0.0183,-0.0168,-0.0171,-0.0172,-0.0173,0,0,0,0,0,0,0,0.0105,0.0098,0.004,0.0042,0.0038,0.0019,0.0012,-0.0024,-0.0061,-0.0021,-0.0024,-0.0032,-0.0111,-0.0125,-0.0132,-0.0185,-0.0168,-0.0172,-0.0174,-0.0175,-0.0266,-0.0266,0,0,0,0,0,0,0.0116,0.0102,0.0043,0.0038,0.0069,0.0018,0.001,-0.0,-0.0061,-0.007,-0.0031,-0.0033,-0.0118,-0.0127,-0.0135,-0.0169,-0.0172,-0.0176,-0.0178,-0.0266,-0.0266,-0.0266,0,0,0,0,0,0,0.0118,0.0111,0.0046,0.0069,0.0059,0.0017,0.0006,-0.0002,-0.0016,-0.0068,-0.0078,-0.0038,-0.0119,-0.013,-0.0166,-0.0173,-0.0178,-0.0181,-0.0266,-0.0266,-0.0266,-0.023,0,0,0,0,0,0,0.012,0.0112,0.011,0.0069,0.0058,0.0027,0.0006,-0.0003,-0.002,-0.0024,-0.0077,-0.0087,-0.012,-0.016,-0.017,-0.0178,-0.0184,-0.0265,-0.0266,-0.0266,-0.0231,-0.0229,-0.0227,0,0,0,0,0,0.0123,0.012,0.011,0.0103,0.0055,0.0027,0.0019,-0.0012,-0.002,-0.0026,-0.0061,-0.0085,-0.0169,-0.0163,-0.0175,-0.0184,-0.0265,-0.0266,-0.0266,-0.0232,-0.023,-0.0227,0,0,0,0,0,0,0.015,0.0113,0.0102,0.0087,0.0062,0.0019,0.001,-0.0007,-0.0039,-0.0043,-0.0089,-0.0101,-0.0135,-0.0162,-0.0155,-0.021,-0.022,-0.0223,-0.0191,-0.0189,-0.0187,-0.0174,-0.0187,0,0,0,0,0,0.0156,0.0144,0.0109,0.0097,0.0087,0.0051,0.0037,0.0017,-0.0017,-0.0031,-0.0068,-0.0108,-0.0145,-0.0168,-0.0203,-0.0234,-0.0229,-0.0247,-0.0245,-0.0243,-0.024,-0.0234,-0.0231,-0.0267,-0.0267,-0.0267,0,0,0.0163,0.0142,0.0135,0.0103,0.008,0.0064,0.0042,0.0021,0.0005,-0.0038,-0.0069,-0.0102,-0.0151,-0.0186,-0.0203,-0.021,-0.0226,-0.0243,-0.0241,-0.0239,-0.0234,-0.023,-0.0227,-0.0267,-0.0267,-0.0267,0,0,0.0171,0.0153,0.0147,0.0129,0.0099,0.0076,0.0074,0.0036,0.0016,-0.0015,-0.005,-0.0085,-0.014,-0.0178,-0.0204,-0.0213,-0.0214,-0.0223,-0.0207,-0.0202,-0.0198,-0.0195,-0.0162,-0.0156,-0.0224,-0.0224,-0.0224,0,0.0182,0.0167,0.0141,0.0131,0.0119,0.0085,0.0079,0.0051,0.0006,-0.0002,-0.0019,-0.0085,-0.0138,-0.0173,-0.0189,-0.021,-0.019,-0.0211,-0.0197,-0.0195,-0.0192,-0.0159,-0.0153,-0.0222,-0.0223,-0.0223,-0.0223,0,0.0183,0.0174,0.0169,0.0145,0.013,0.0119,0.0082,0.0067,0.0045,0.0023,-0.0006,-0.0067,-0.0099,-0.013,-0.0173,-0.0185,-0.0169,-0.0191,-0.0198,-0.0186,-0.0152,-0.0146,-0.022,-0.0221,-0.0221,-0.0222,0,0,0.0203,0.0177,0.0176,0.0177,0.0139,0.0133,0.0107,0.0085,0.0104,0.0043,0.0072,-0.0039,-0.0049,-0.008,-0.0126,-0.0146,-0.0127,-0.0163,-0.0164,-0.012,-0.0081,-0.0101,-0.0097,-0.0137,-0.0137,-0.0136,-0.0055,0,0.0214,0.021,0.0187,0.0188,0.0187,0.0156,0.0151,0.0129,0.0118,0.0141,0.0074,0.0084,-0.0035,-0.0019,-0.0071,-0.0095,-0.0114,-0.0145,-0.0109,-0.0107,-0.0119,-0.0093,-0.012,-0.0054,-0.005,-0.0049,-0.0049,0,0.0225,0.0223,0.0226,0.0232,0.0232,0.0232,0.0248,0.0243,0.0249,0.0254,0.0232,0.0212,0.0165,0.0091,0.0016,0.001,-0.0043,-0.0075,-0.0073,-0.0103,-0.0118,-0.0072,-0.0044,-0.0247,-0.004,-0.0041,-0.0042,0,0.0264,0.0255,0.0265,0.026,0.0257,0.0267,0.0277,0.0283,0.0332,0.0359,0.0436,0.0345,0.0381,0.0266,0.015,0.0106,0.0107,0.0046,-0.0023,-0.0023,-0.0047,-0.0051,-0.0207,0.0001,0.0001,0.0,0.0,0,0.0288,0.03,0.0293,0.0301,0.0349,0.033,0.0403,0.0407,0.0484,0.0601,0.0517,0.0612,0.0431,0.0401,0.0241,0.0138,0.0174,-0.0007,-0.0007,-0.0034,-0.0038,-0.0217,-0.0313,0.0003,0.0003,0.0002,0.0002,0,0.0333,0.0318,0.0344,0.0354,0.0369,0.0414,0.0509,0.0592,0.0642,0.0812,0.0849,0.0852,0.0796,0.0609,0.0475,0.0306,0.0079,0.0133,0.0123,0.0117,-0.0176,-0.0266,-0.0374,-0.0446,0.0072,0.0072,0.0072,0,0.0358,0.037,0.04,0.0449,0.0462,0.0532,0.0613,0.0667,0.0796,0.0972,0.1097,0.1096,0.1115,0.0894,0.0573,0.0313,0.0113,0.014,0.001,-0.0189,-0.029,-0.036,-0.0419,0.0012,0.0012,0.0011,0.0011,0,0.0417,0.0424,0.0455,0.0565,0.0648,0.075,0.0883,0.1006,0.1135,0.1275,0.1475,0.1505,0.1278,0.1,0.0623,0.0409,-0.0009,0.0123,-0.0085,-0.0353,-0.0436,-0.0504,-0.0025,0.0007,0.0007,0.0008,0.0008,0.0008,0.048,0.0529,0.0599,0.071,0.0818,0.1004,0.112,0.1288,0.1498,0.1736,0.1746,0.1791,0.1352,0.0808,0.0526,-0.0065,-0.0044,-0.0252,-0.0337,-0.0384,-0.0501,-0.0023,-0.0004,-0.0004,-0.0004,-0.0003,-0.0003,0,0.0578,0.0649,0.0758,0.0908,0.1071,0.11,0.1337,0.1473,0.1725,0.1875,0.2002,0.1752,0.1241,0.0678,-0.0088,-0.0455,-0.0606,-0.0667,-0.0802,-0.0834,-0.041,-0.0468,-0.0548,-0.0548,-0.0547,-0.0547,-0.0547,-0.0547,0.0647,0.0774,0.084,0.1124,0.1238,0.1461,0.16,0.1782,0.1906,0.2047,0.2008,0.1952,0.1462,0.0173,-0.0711,-0.0909,-0.1187,-0.1227,-0.1332,-0.1101,-0.1071,-0.1042,-0.1123,-0.1339,-0.1339,-0.1737,-0.1741,-0.1744]}],[{"header":{"parameterUnit":"m.s-1","parameterCategory":2,"la1":30.2991,"la2":30.254,"lo1":-89.0895,"lo2":-89.0444,"dy":0.0017,"dx":0.0017,"nx":28,"ny":28,"refTime":"2025-02-09T03:00:00:Z","depth":"2","parameterNumber":2,"parameterNumberName":"U-component_of_CURRENTS"},"data":[0,0,0,0,0,0,0,0,0,0,0,0,0,0,0,0,0,0,0,0,0,0,0,0,0,0,0,0,0,0,0,0,0,0,0,0,0,0,0,0,0,0,0,0,0,0,0,0,0,0,0,0,0,0,0,0,0,0,0.138,0.138,0,0.1414,0.1414,0.1415,0.1425,0.1425,0.1424,0.1424,0.1457,0.1458,0.1459,0,0,0,0,0,0,0,0,0,0,0,0,0,0.1336,0.1337,0.138,0.138,0.1381,0.1414,0.1414,0.1415,0.1425,0.1425,0.1424,0.1424,0.1457,0.1458,0.1459,0,0,0,0,0,0,0,0,0,0,0,0,0,0.1361,0.1337,0.138,0.139,0.1392,0.1414,0.1414,0.1415,0.1425,0.1425,0.1424,0.1424,0.1456,0.1458,0.1459,0.1472,0,0,0.1464,0.1464,0,0,0,0,0,0,0,0,0.1359,0.1362,0.1388,0.139,0.1391,0.1415,0.1411,0.1434,0.1425,0.1411,0.1424,0.1424,0.1444,0.1446,0.1452,0.1474,0.1475,0.1464,0.1465,0.1465,0.1466,0,0,0,0,0,0,0,0.1358,0.1361,0.1393,0.1389,0.1391,0.1398,0.1401,0.1416,0.1428,0.1413,0.1414,0.1418,0.1444,0.1451,0.1453,0.1476,0.1464,0.1465,0.1466,0.1467,0.1543,0.1544,0,0,0,0,0,0,0.1354,0.1359,0.1392,0.1394,0.1375,0.1399,0.1402,0.1407,0.1428,0.1431,0.1419,0.1419,0.1448,0.1451,0.1454,0.1507,0.1465,0.1467,0.1468,0.1542,0.1544,0.1545,0,0,0,0,0,0,0.1353,0.1357,0.139,0.1378,0.1383,0.14,0.1405,0.1408,0.1421,0.1432,0.1435,0.1429,0.1448,0.1452,0.1478,0.1507,0.1468,0.1469,0.1541,0.1543,0.1544,0.1589,0,0,0,0,0,0,0.1352,0.1356,0.1362,0.1378,0.1383,0.1411,0.1406,0.1409,0.1424,0.1425,0.1442,0.1445,0.1448,0.1476,0.148,0.1508,0.147,0.1539,0.1542,0.1544,0.1586,0.1592,0.1597,0,0,0,0,0,0.135,0.1358,0.1362,0.1366,0.1389,0.1411,0.1415,0.1426,0.1425,0.1436,0.1449,0.1445,0.1492,0.1478,0.1482,0.1511,0.1538,0.1541,0.1544,0.1583,0.159,0.1597,0,0,0,0,0,0,0.1341,0.136,0.1365,0.1378,0.1397,0.1413,0.1425,0.1431,0.1449,0.1452,0.1458,0.1462,0.1497,0.1497,0.1481,0.154,0.1516,0.1519,0.1544,0.1551,0.1557,0.1554,0.1471,0,0,0,0,0,0.1342,0.1355,0.1373,0.1386,0.1395,0.1411,0.1422,0.1431,0.1448,0.1456,0.1472,0.1489,0.1511,0.1523,0.1541,0.1571,0.1598,0.1593,0.1599,0.1603,0.1604,0.1675,0.1687,0.1553,0.1553,0.1553,0,0,0.1342,0.1355,0.1362,0.1385,0.14,0.1426,0.1418,0.144,0.1466,0.1457,0.1499,0.1509,0.1523,0.156,0.1576,0.1563,0.1659,0.1606,0.161,0.1609,0.1679,0.1692,0.1704,0.1555,0.1555,0.1555,0,0,0.1354,0.1362,0.1379,0.1399,0.1425,0.1438,0.1447,0.1472,0.1488,0.1524,0.1528,0.1552,0.1587,0.1603,0.1615,0.1659,0.1685,0.167,0.1698,0.1767,0.1779,0.1789,0.1855,0.1872,0.1673,0.1673,0.1673,0,0.1353,0.1377,0.1388,0.1415,0.1434,0.1447,0.1473,0.1496,0.1529,0.1549,0.1544,0.1605,0.1609,0.1657,0.167,0.1673,0.1719,0.1672,0.1776,0.1786,0.1797,0.1861,0.1879,0.1676,0.1675,0.1675,0.1675,0,0.1382,0.1404,0.1417,0.1456,0.1479,0.1503,0.1534,0.156,0.1579,0.1604,0.1656,0.1667,0.1704,0.171,0.1702,0.1774,0.1787,0.1776,0.176,0.1813,0.1878,0.1895,0.1679,0.1678,0.1678,0.1677,0,0,0.1373,0.1425,0.1432,0.1455,0.1501,0.1522,0.1568,0.1612,0.1659,0.1684,0.1747,0.1764,0.1775,0.1787,0.1788,0.1833,0.1938,0.1836,0.1838,0.1903,0.2108,0.2058,0.2072,0.1957,0.196,0.1962,0.213,0,0.1391,0.1439,0.1465,0.1516,0.1542,0.1572,0.1621,0.1666,0.1712,0.178,0.1793,0.1859,0.1806,0.1843,0.1874,0.1929,0.1984,0.1894,0.2044,0.2048,0.1999,0.209,0.1912,0.2041,0.2147,0.2149,0.2152,0,0.1411,0.1441,0.1487,0.1548,0.1564,0.1601,0.168,0.1729,0.1818,0.1862,0.1914,0.1947,0.2007,0.1966,0.2075,0.2028,0.207,0.2101,0.2109,0.2055,0.203,0.2002,0.2068,0.218,0.2178,0.2176,0.2174,0,0.1395,0.1455,0.1489,0.151,0.1584,0.1615,0.166,0.175,0.181,0.1931,0.2007,0.2067,0.2131,0.2181,0.221,0.2177,0.2337,0.2305,0.2299,0.2296,0.2167,0.2147,0.2397,0.2397,0.2397,0.2396,0.2396,0,0.1402,0.1432,0.1484,0.1506,0.1559,0.1617,0.1695,0.1762,0.1878,0.1974,0.2052,0.2138,0.2193,0.2273,0.2281,0.2342,0.24,0.2327,0.2344,0.2177,0.2158,0.2281,0.2266,0.2403,0.2401,0.24,0.2399,0,0.1386,0.142,0.1461,0.1529,0.1552,0.1593,0.1699,0.1773,0.1897,0.2033,0.2085,0.2227,0.2346,0.2387,0.249,0.2448,0.2503,0.2506,0.23,0.2288,0.2404,0.2389,0.255,0.255,0.255,0.2549,0.2549,0,0.1381,0.14,0.146,0.1488,0.1521,0.1586,0.1646,0.1763,0.1857,0.2073,0.215,0.2313,0.2392,0.2521,0.2505,0.2546,0.2555,0.2395,0.2281,0.2424,0.2425,0.241,0.2395,0.2142,0.2139,0.2136,0.2134,0,0.1371,0.1392,0.1428,0.148,0.1533,0.1592,0.1691,0.1751,0.1917,0.203,0.2185,0.2264,0.2411,0.2367,0.2423,0.2405,0.2368,0.234,0.2581,0.2114,0.2049,0.2046,0.2044,0.2109,0.2112,0.2113,0.2115,0.2116,0.1357,0.1378,0.1425,0.1475,0.1531,0.1592,0.1621,0.1718,0.1817,0.1951,0.2086,0.2148,0.2212,0.2208,0.2169,0.215,0.2291,0.2182,0.2188,0.2197,0.2102,0.2038,0.208,0.2082,0.2084,0.2086,0.2088,0,0.133,0.137,0.142,0.1472,0.1509,0.1559,0.1651,0.1644,0.1689,0.1827,0.1894,0.1808,0.1825,0.1904,0.1843,0.1854,0.1801,0.1785,0.1695,0.1723,0.1747,0.1624,0.1479,0.1476,0.1474,0.1472,0,0,0.1321,0.1354,0.1387,0.1429,0.1469,0.1486,0.1511,0.1488,0.1544,0.1526,0.1563,0.1712,0.1848,0.1628,0.1619,0.1543,0.1611,0.1489,0.1983,0.1905,0.1926,0.1992,0.1837,0,0,0,0,0]},{"header":{"parameterUnit":"m.s-1","parameterCategory":2,"la1":30.2991,"la2":30.254,"lo1":-89.0895,"lo2":-89.0444,"dy":0.0017,"dx":0.0017,"nx":28,"ny":28,"refTime":"2025-02-09T03:00:00:Z","depth":"2","parameterNumber":3,"parameterNumberName":"V-component_of_CURRENTS"},"data":[0,0,0,0,0,0,0,0,0,0,0,0,0,0,0,0,0,0,0,0,0,0,0,0,0,0,0,0,0,0,0,0,0,0,0,0,0,0,0,0,0,0,0,0,0,0,0,0,0,0,0,0,0,0,0,0,0,0,-0.0231,-0.0231,0,-0.0282,-0.0283,-0.0284,-0.0319,-0.0319,-0.0319,-0.0319,-0.0406,-0.0408,-0.041,0,0,0,0,0,0,0,0,0,0,0,0,0,-0.0192,-0.0192,-0.0231,-0.0231,-0.0232,-0.0282,-0.0283,-0.0284,-0.0319,-0.0319,-0.0319,-0.0319,-0.0405,-0.0407,-0.041,0,0,0,0,0,0,0,0,0,0,0,0,0,-0.0223,-0.0192,-0.0231,-0.0255,-0.0258,-0.0282,-0.0283,-0.0284,-0.0319,-0.0319,-0.0319,-0.032,-0.0404,-0.0407,-0.041,-0.0424,0,0,-0.042,-0.0421,0,0,0,0,0,0,0,0,-0.0221,-0.0224,-0.0251,-0.0253,-0.0256,-0.0294,-0.0301,-0.0332,-0.0319,-0.0296,-0.0319,-0.032,-0.0371,-0.0377,-0.0386,-0.0428,-0.0431,-0.042,-0.0422,-0.0424,-0.0424,0,0,0,0,0,0,0,-0.0219,-0.0223,-0.0252,-0.0251,-0.0255,-0.0273,-0.0278,-0.0307,-0.0332,-0.0298,-0.0301,-0.0305,-0.0373,-0.0383,-0.0388,-0.0433,-0.042,-0.0423,-0.0425,-0.0426,-0.0495,-0.0495,0,0,0,0,0,0,-0.021,-0.022,-0.025,-0.0253,-0.0239,-0.0274,-0.0279,-0.0282,-0.0331,-0.0339,-0.0305,-0.0307,-0.0377,-0.0385,-0.0392,-0.0411,-0.0423,-0.0426,-0.0428,-0.0495,-0.0495,-0.0495,0,0,0,0,0,0,-0.0209,-0.0212,-0.0248,-0.0238,-0.0244,-0.0274,-0.0277,-0.0283,-0.0292,-0.0336,-0.0344,-0.0308,-0.0378,-0.0387,-0.0416,-0.0414,-0.0428,-0.0431,-0.0495,-0.0495,-0.0495,-0.0448,0,0,0,0,0,0,-0.0207,-0.0211,-0.021,-0.0237,-0.0244,-0.0257,-0.0277,-0.0284,-0.0294,-0.0297,-0.0342,-0.035,-0.0379,-0.0411,-0.0419,-0.0419,-0.0433,-0.0495,-0.0495,-0.0495,-0.045,-0.0447,-0.0444,0,0,0,0,0,-0.0206,-0.02,-0.0209,-0.0213,-0.0241,-0.0257,-0.0262,-0.0285,-0.0294,-0.0295,-0.0326,-0.0349,-0.0416,-0.0413,-0.0423,-0.0424,-0.0496,-0.0495,-0.0495,-0.0451,-0.0447,-0.0444,0,0,0,0,0,0,-0.0181,-0.0204,-0.0214,-0.0216,-0.0233,-0.0263,-0.0265,-0.0281,-0.0305,-0.0309,-0.0349,-0.036,-0.0384,-0.041,-0.0406,-0.0443,-0.0459,-0.0461,-0.0422,-0.0419,-0.0416,-0.0401,-0.0436,0,0,0,0,0,-0.0175,-0.0178,-0.0202,-0.0203,-0.0209,-0.0236,-0.0245,-0.026,-0.0286,-0.0296,-0.0327,-0.0361,-0.0391,-0.0409,-0.0438,-0.0459,-0.0476,-0.0466,-0.0462,-0.046,-0.0454,-0.0474,-0.0472,-0.0495,-0.0495,-0.0495,0,0,-0.0165,-0.0178,-0.0179,-0.0198,-0.0213,-0.0217,-0.0242,-0.0252,-0.0257,-0.0303,-0.0318,-0.0351,-0.0394,-0.0417,-0.043,-0.0438,-0.0462,-0.0459,-0.0457,-0.0453,-0.0474,-0.0472,-0.047,-0.0495,-0.0495,-0.0495,0,0,-0.0144,-0.0157,-0.0153,-0.0165,-0.0183,-0.02,-0.02,-0.0227,-0.024,-0.026,-0.0294,-0.0323,-0.0367,-0.0397,-0.0419,-0.0417,-0.0444,-0.0427,-0.0403,-0.0422,-0.042,-0.0418,-0.0433,-0.0433,-0.0427,-0.0427,-0.0427,0,-0.013,-0.013,-0.0153,-0.0152,-0.0157,-0.0189,-0.0183,-0.0203,-0.0235,-0.0242,-0.0258,-0.0318,-0.0357,-0.0386,-0.0389,-0.0409,-0.0422,-0.0412,-0.0417,-0.0416,-0.0415,-0.0431,-0.0431,-0.0424,-0.0425,-0.0425,-0.0425,0,-0.011,-0.0109,-0.0106,-0.0116,-0.0124,-0.0124,-0.0151,-0.016,-0.018,-0.02,-0.0227,-0.0278,-0.0311,-0.0332,-0.0364,-0.038,-0.0391,-0.0408,-0.0422,-0.041,-0.0427,-0.0429,-0.0421,-0.0422,-0.0423,-0.0423,0,0,-0.008,-0.0089,-0.0087,-0.0082,-0.0103,-0.0104,-0.0112,-0.0126,-0.0118,-0.0163,-0.0156,-0.0227,-0.025,-0.0276,-0.0319,-0.0344,-0.0358,-0.0372,-0.0374,-0.038,-0.0395,-0.0421,-0.0425,-0.0373,-0.0373,-0.0374,-0.0407,0,-0.0055,-0.0039,-0.0054,-0.0038,-0.003,-0.0056,-0.0056,-0.0074,-0.0089,-0.009,-0.0149,-0.0158,-0.0231,-0.0233,-0.0278,-0.0328,-0.0361,-0.0347,-0.0412,-0.0414,-0.0433,-0.0428,-0.0406,-0.0436,-0.0409,-0.041,-0.041,0,-0.0031,-0.0022,0.0,0.001,0.0011,0.0016,0.0023,0.0022,0.0004,-0.0003,-0.0034,-0.007,-0.012,-0.017,-0.0271,-0.0257,-0.0325,-0.0372,-0.0375,-0.0416,-0.0443,-0.0447,-0.044,-0.0413,-0.0413,-0.0413,-0.0412,0,0.0004,0.0017,0.0039,0.004,0.0043,0.0053,0.0059,0.0051,0.0076,0.0068,0.0105,0.0012,0.0008,-0.0102,-0.0226,-0.0238,-0.0328,-0.0353,-0.0445,-0.0447,-0.0451,-0.0453,-0.0422,-0.0422,-0.0422,-0.0422,-0.0422,0,0.0034,0.0054,0.0061,0.0074,0.0114,0.01,0.0148,0.0144,0.0171,0.0226,0.0163,0.0189,0.0028,-0.0048,-0.0186,-0.0322,-0.0303,-0.0438,-0.0458,-0.0434,-0.0435,-0.0435,-0.0436,-0.0424,-0.0423,-0.0423,-0.0423,0,0.0067,0.0068,0.0101,0.0118,0.0132,0.0163,0.0222,0.0267,0.029,0.037,0.0384,0.0333,0.0237,0.0066,-0.0103,-0.0243,-0.0384,-0.0442,-0.0405,-0.0422,-0.0499,-0.0497,-0.0532,-0.0533,-0.0534,-0.0535,-0.0536,0,0.0086,0.0104,0.0142,0.018,0.0193,0.0245,0.0293,0.032,0.0389,0.0458,0.0514,0.0453,0.0397,0.0136,-0.0112,-0.035,-0.0382,-0.0481,-0.0509,-0.0494,-0.051,-0.0507,-0.0504,-0.0492,-0.0493,-0.0493,-0.0493,0,0.0126,0.0136,0.0167,0.0248,0.0305,0.0374,0.0454,0.0505,0.0562,0.0618,0.0652,0.0609,0.0404,0.0154,-0.0148,-0.031,-0.0445,-0.0493,-0.0478,-0.0472,-0.0461,-0.0476,-0.0473,-0.0495,-0.0495,-0.0495,-0.0495,-0.0495,0.0159,0.0192,0.0244,0.032,0.0393,0.0482,0.0533,0.0603,0.0672,0.0747,0.0719,0.0685,0.0443,0.0057,-0.0202,-0.045,-0.0455,-0.0552,-0.055,-0.0547,-0.0541,-0.0533,-0.0579,-0.0579,-0.0579,-0.0579,-0.0579,0,0.0196,0.0241,0.032,0.0399,0.048,0.0531,0.0632,0.0666,0.0703,0.0798,0.0791,0.0589,0.034,0.0106,-0.0266,-0.0518,-0.0528,-0.058,-0.0539,-0.0536,-0.0534,-0.0525,-0.0559,-0.056,-0.056,-0.056,0,0,0.0219,0.0287,0.0326,0.0452,0.0527,0.063,0.0678,0.0713,0.0776,0.0791,0.0811,0.0759,0.046,0.0194,-0.0139,-0.0333,-0.0372,-0.0372,-0.0369,-0.0279,-0.0273,-0.0506,-0.0488,0,0,0,0,0]}],[{"header":{"parameterUnit":"m.s-1","parameterCategory":2,"la1":30.2991,"la2":30.254,"lo1":-89.0895,"lo2":-89.0444,"dy":0.0017,"dx":0.0017,"nx":28,"ny":28,"refTime":"2025-02-09T03:00:00:Z","depth":"4","parameterNumber":2,"parameterNumberName":"U-component_of_CURRENTS"},"data":[0,0,0,0,0,0,0,0,0,0,0,0,0,0,0,0,0,0,0,0,0,0,0,0,0,0,0,0,0,0,0,0,0,0,0,0,0,0,0,0,0,0,0,0,0,0,0,0,0,0,0,0,0,0,0,0,0,0,0.085,0.085,0,0.0904,0.0905,0.0905,0.0946,0.0946,0.0947,0.0947,0.0983,0.0983,0.0984,0,0,0,0,0,0,0,0,0,0,0,0,0,0.0765,0.0766,0.085,0.085,0.0851,0.0904,0.0905,0.0906,0.0946,0.0946,0.0947,0.0948,0.0982,0.0983,0.0984,0,0,0,0,0,0,0,0,0,0,0,0,0,0.0807,0.0766,0.0849,0.0879,0.0882,0.0904,0.0905,0.0906,0.0946,0.0946,0.0947,0.0948,0.0982,0.0983,0.0984,0.0973,0,0,0.0986,0.0986,0,0,0,0,0,0,0,0,0.0805,0.081,0.0874,0.0877,0.0881,0.092,0.0888,0.0928,0.0945,0.092,0.0947,0.0948,0.096,0.0963,0.097,0.0975,0.0976,0.0986,0.0986,0.0987,0.0987,0,0,0,0,0,0,0,0.0802,0.0808,0.087,0.0875,0.0879,0.0884,0.0891,0.0896,0.0934,0.0922,0.0926,0.0934,0.0962,0.0969,0.0971,0.0977,0.0986,0.0987,0.0987,0.0987,0.104,0.1041,0,0,0,0,0,0,0.0798,0.0805,0.0868,0.0872,0.0845,0.0885,0.0893,0.0906,0.0934,0.094,0.0933,0.0936,0.0967,0.097,0.0972,0.1018,0.0987,0.0987,0.0988,0.1039,0.104,0.1041,0,0,0,0,0,0,0.0796,0.0803,0.0866,0.084,0.0849,0.0886,0.09,0.0906,0.0934,0.0943,0.0948,0.0957,0.0968,0.0971,0.0993,0.1018,0.0988,0.0988,0.1038,0.1039,0.104,0.1074,0,0,0,0,0,0,0.0794,0.0802,0.0817,0.084,0.085,0.089,0.09,0.0907,0.0937,0.0942,0.0965,0.0968,0.0969,0.0992,0.0994,0.1018,0.0989,0.1036,0.1038,0.104,0.1071,0.1076,0.108,0,0,0,0,0,0.079,0.0805,0.0818,0.0826,0.0868,0.089,0.0896,0.0923,0.0938,0.0951,0.0968,0.0968,0.1005,0.0993,0.0995,0.102,0.1036,0.1038,0.104,0.1069,0.1075,0.108,0,0,0,0,0,0,0.0777,0.0812,0.0826,0.0851,0.0875,0.0898,0.0916,0.0933,0.0957,0.0967,0.0975,0.0979,0.1008,0.1008,0.0994,0.1041,0.1023,0.1025,0.1044,0.105,0.1054,0.1064,0.0989,0,0,0,0,0,0.078,0.0802,0.0831,0.0852,0.0866,0.0894,0.0911,0.0929,0.0951,0.0964,0.0979,0.0997,0.1014,0.1027,0.1037,0.1059,0.1071,0.1079,0.1083,0.1087,0.1097,0.114,0.1149,0.1048,0.1048,0.1048,0,0,0.078,0.0803,0.0815,0.0851,0.0873,0.0892,0.0906,0.0936,0.0958,0.0961,0.0996,0.101,0.1022,0.105,0.1063,0.1056,0.112,0.109,0.1093,0.1101,0.1143,0.1153,0.1162,0.105,0.1049,0.1049,0,0,0.0783,0.0813,0.083,0.0849,0.0886,0.0902,0.0915,0.0948,0.0973,0.1001,0.1014,0.1044,0.1065,0.1084,0.1095,0.1129,0.1139,0.1137,0.1171,0.1213,0.1222,0.123,0.1249,0.1259,0.1143,0.1143,0.1143,0,0.0784,0.0811,0.0837,0.0856,0.0878,0.0908,0.093,0.0953,0.099,0.102,0.1017,0.1082,0.1082,0.1134,0.1143,0.1139,0.1161,0.1149,0.1219,0.1227,0.1235,0.1253,0.1263,0.1145,0.1145,0.1144,0.1144,0,0.0791,0.082,0.0832,0.0867,0.0892,0.0916,0.0951,0.0983,0.1015,0.1045,0.1109,0.1122,0.1168,0.1171,0.1164,0.1226,0.1223,0.1216,0.1206,0.1247,0.1263,0.1273,0.1147,0.1147,0.1146,0.1146,0,0,0.0772,0.0828,0.0833,0.0858,0.0904,0.0925,0.0968,0.1023,0.1067,0.1108,0.1168,0.1201,0.1232,0.1246,0.1256,0.1285,0.134,0.1277,0.1278,0.1296,0.1429,0.1349,0.1351,0.1355,0.1357,0.1359,0.1416,0,0.0773,0.081,0.0841,0.0882,0.0906,0.0953,0.0995,0.1049,0.1097,0.1155,0.1204,0.1257,0.1256,0.1286,0.1321,0.1344,0.1369,0.1324,0.1387,0.1388,0.1312,0.1361,0.1365,0.1423,0.1425,0.1427,0.1428,0,0.0766,0.0798,0.084,0.0908,0.0926,0.0959,0.1044,0.1085,0.1172,0.1215,0.1291,0.1323,0.1396,0.1368,0.1459,0.1438,0.1436,0.144,0.1442,0.1365,0.1327,0.1376,0.1446,0.1444,0.1443,0.1442,0.1441,0,0.0733,0.0795,0.0835,0.0853,0.0931,0.0977,0.1027,0.1114,0.1159,0.1262,0.1303,0.1403,0.1456,0.1496,0.1516,0.15,0.1589,0.1565,0.1489,0.1483,0.1522,0.1513,0.1606,0.1606,0.1606,0.1606,0.1606,0,0.0713,0.0741,0.083,0.0847,0.0912,0.0975,0.1052,0.1115,0.1204,0.1263,0.1342,0.1396,0.1492,0.1547,0.155,0.1564,0.1628,0.1507,0.1501,0.1533,0.1524,0.1529,0.1519,0.1608,0.1608,0.1607,0.1607,0,0.0655,0.0713,0.0762,0.086,0.0897,0.0944,0.1052,0.11,0.1197,0.1272,0.1306,0.142,0.1509,0.1569,0.1635,0.1602,0.1614,0.1586,0.1619,0.1611,0.1468,0.146,0.1523,0.1521,0.1519,0.1518,0.1516,0,0.0628,0.0646,0.0755,0.0794,0.0843,0.0925,0.0981,0.1089,0.1136,0.1272,0.1297,0.1412,0.1479,0.1522,0.1591,0.1617,0.1585,0.1579,0.1518,0.1477,0.1465,0.1459,0.1453,0.1514,0.1513,0.1513,0.1512,0,0.0571,0.0615,0.0656,0.0734,0.0803,0.0868,0.0957,0.0977,0.1102,0.1196,0.1267,0.1316,0.141,0.148,0.1513,0.1518,0.1587,0.1559,0.1562,0.1505,0.1466,0.1454,0.145,0.1506,0.1507,0.1507,0.1508,0,0.0531,0.0541,0.0605,0.0667,0.0743,0.0792,0.0848,0.0919,0.0981,0.113,0.1157,0.1279,0.1397,0.1427,0.1456,0.1471,0.1444,0.1389,0.14,0.1408,0.1345,0.1277,0.1266,0,0,0,0,0,0.0498,0.0497,0.0537,0.0606,0.0672,0.0722,0.0822,0.088,0.0998,0.102,0.1085,0.1162,0.1236,0.1303,0.1296,0.1398,0.1439,0.1383,0.1378,0.147,0.1478,0.1415,0,0,0,0,0,0,0.0473,0.0496,0.0508,0.0539,0.0571,0.0639,0.0699,0.078,0.0804,0.0931,0.0982,0.109,0.118,0.1227,0.1272,0.1293,0.1266,0.1466,0.1463,0.1466,0.1473,0.1479,0.1417,0,0,0,0,0]},{"header":{"parameterUnit":"m.s-1","parameterCategory":2,"la1":30.2991,"la2":30.254,"lo1":-89.0895,"lo2":-89.0444,"dy":0.0017,"dx":0.0017,"nx":28,"ny":28,"refTime":"2025-02-09T03:00:00:Z","depth":"4","parameterNumber":3,"parameterNumberName":"V-component_of_CURRENTS"},"data":[0,0,0,0,0,0,0,0,0,0,0,0,0,0,0,0,0,0,0,0,0,0,0,0,0,0,0,0,0,0,0,0,0,0,0,0,0,0,0,0,0,0,0,0,0,0,0,0,0,0,0,0,0,0,0,0,0,0,-0.0189,-0.019,0,-0.0221,-0.0221,-0.0222,-0.0258,-0.0258,-0.0259,-0.0259,-0.0315,-0.0316,-0.0317,0,0,0,0,0,0,0,0,0,0,0,0,0,-0.0182,-0.0182,-0.0189,-0.019,-0.019,-0.0221,-0.0221,-0.0222,-0.0258,-0.0258,-0.0259,-0.0259,-0.0315,-0.0316,-0.0318,0,0,0,0,0,0,0,0,0,0,0,0,0,-0.0197,-0.0182,-0.0189,-0.0211,-0.0214,-0.0221,-0.0221,-0.0222,-0.0258,-0.0258,-0.0259,-0.026,-0.0315,-0.0316,-0.0318,-0.0312,0,0,-0.0322,-0.0323,0,0,0,0,0,0,0,0,-0.0196,-0.0197,-0.0208,-0.021,-0.0212,-0.0236,-0.0239,-0.0253,-0.0257,-0.0241,-0.0259,-0.026,-0.029,-0.0294,-0.0298,-0.0315,-0.0318,-0.0323,-0.0324,-0.0324,-0.0325,0,0,0,0,0,0,0,-0.0195,-0.0196,-0.0202,-0.0208,-0.0211,-0.0227,-0.023,-0.0242,-0.0262,-0.0243,-0.0245,-0.0248,-0.0292,-0.0297,-0.03,-0.0318,-0.0323,-0.0324,-0.0325,-0.0326,-0.0346,-0.0346,0,0,0,0,0,0,-0.0188,-0.0195,-0.0201,-0.0203,-0.0205,-0.0226,-0.023,-0.0228,-0.0261,-0.0267,-0.0247,-0.0249,-0.0294,-0.0298,-0.0302,-0.0299,-0.0324,-0.0326,-0.0327,-0.0346,-0.0346,-0.0345,0,0,0,0,0,0,-0.0187,-0.0188,-0.02,-0.02,-0.0202,-0.0226,-0.0223,-0.0228,-0.0239,-0.0264,-0.0271,-0.0254,-0.0295,-0.03,-0.0313,-0.0301,-0.0326,-0.0328,-0.0347,-0.0346,-0.0346,-0.0292,0,0,0,0,0,0,-0.0187,-0.0187,-0.0186,-0.0199,-0.0202,-0.0201,-0.0223,-0.0228,-0.0239,-0.0242,-0.0272,-0.0278,-0.0296,-0.0311,-0.0315,-0.0304,-0.0329,-0.0347,-0.0347,-0.0346,-0.0294,-0.0289,-0.0285,0,0,0,0,0,-0.0186,-0.0176,-0.0186,-0.0187,-0.0199,-0.02,-0.0203,-0.0223,-0.0238,-0.0237,-0.0259,-0.0277,-0.0309,-0.0311,-0.0316,-0.0306,-0.0348,-0.0347,-0.0346,-0.0296,-0.029,-0.0285,0,0,0,0,0,0,-0.017,-0.0179,-0.019,-0.0183,-0.0191,-0.0206,-0.0207,-0.0221,-0.0237,-0.0244,-0.0272,-0.0278,-0.0286,-0.0304,-0.0306,-0.031,-0.0331,-0.0331,-0.0292,-0.0287,-0.0282,-0.0271,-0.033,0,0,0,0,0,-0.0166,-0.0163,-0.0174,-0.017,-0.0172,-0.0191,-0.0196,-0.0208,-0.0223,-0.0231,-0.0251,-0.0272,-0.0285,-0.0292,-0.0308,-0.0308,-0.0343,-0.0305,-0.0301,-0.0297,-0.0292,-0.0335,-0.0334,-0.0343,-0.0343,-0.0343,0,0,-0.0158,-0.0163,-0.0162,-0.0167,-0.0176,-0.0166,-0.0196,-0.0199,-0.0192,-0.0234,-0.0234,-0.026,-0.0283,-0.0284,-0.0289,-0.0297,-0.0314,-0.0296,-0.0293,-0.0289,-0.0334,-0.0333,-0.0332,-0.0342,-0.0342,-0.0342,0,0,-0.0135,-0.0146,-0.0135,-0.0136,-0.0146,-0.0153,-0.0152,-0.0167,-0.0176,-0.018,-0.0207,-0.0223,-0.0245,-0.0254,-0.0263,-0.0244,-0.0293,-0.0253,-0.0219,-0.026,-0.026,-0.026,-0.0309,-0.0314,-0.0248,-0.0248,-0.0248,0,-0.0126,-0.0112,-0.0131,-0.0117,-0.0113,-0.0142,-0.0123,-0.0131,-0.0148,-0.0155,-0.0173,-0.0211,-0.0226,-0.0229,-0.0219,-0.0232,-0.0273,-0.0235,-0.0255,-0.0255,-0.0257,-0.0307,-0.0313,-0.0245,-0.0245,-0.0246,-0.0246,0,-0.0092,-0.0082,-0.0074,-0.0065,-0.0062,-0.0052,-0.0061,-0.0066,-0.0085,-0.0099,-0.0118,-0.0148,-0.0173,-0.0176,-0.0189,-0.0199,-0.0232,-0.0247,-0.0267,-0.0252,-0.0307,-0.0314,-0.0241,-0.0242,-0.0243,-0.0244,0,0,-0.0068,-0.0052,-0.005,-0.0037,-0.0034,-0.0026,-0.0013,-0.0012,-0.0017,-0.0041,-0.0053,-0.0066,-0.0104,-0.0116,-0.0143,-0.0167,-0.0204,-0.0205,-0.0208,-0.0252,-0.0312,-0.0285,-0.0291,-0.0231,-0.0232,-0.0232,-0.0349,0,-0.0037,0.0001,0.0001,0.0038,0.0057,0.0042,0.0054,0.0048,0.0025,0.0004,-0.0032,-0.0058,-0.0075,-0.0098,-0.0123,-0.0192,-0.0221,-0.0172,-0.0321,-0.0325,-0.0301,-0.0297,-0.0235,-0.0355,-0.0357,-0.0358,-0.0359,0,-0.0004,0.0018,0.006,0.0084,0.0089,0.0105,0.0106,0.0112,0.0079,0.0055,0.002,-0.0025,-0.0063,-0.0085,-0.0189,-0.0164,-0.0226,-0.0277,-0.0283,-0.028,-0.0311,-0.0372,-0.0373,-0.0372,-0.0371,-0.037,-0.0369,0,0.0019,0.0058,0.0092,0.0103,0.0125,0.0135,0.0141,0.0123,0.0117,0.0076,0.0046,-0.0008,-0.0056,-0.0133,-0.0226,-0.0221,-0.035,-0.0362,-0.0397,-0.0398,-0.0412,-0.0411,-0.043,-0.0429,-0.0429,-0.0429,-0.0429,0,0.0051,0.0078,0.0103,0.0121,0.0151,0.0157,0.0168,0.016,0.0134,0.0119,0.0065,0.003,-0.0072,-0.0156,-0.0234,-0.0338,-0.0363,-0.039,-0.042,-0.0388,-0.0382,-0.0419,-0.0416,-0.0433,-0.0432,-0.0431,-0.0431,0,0.0066,0.0085,0.0122,0.0152,0.0161,0.0178,0.0187,0.0182,0.0157,0.013,0.0114,0.0038,-0.0064,-0.0166,-0.03,-0.0351,-0.0449,-0.0477,-0.0441,-0.0468,-0.0472,-0.0466,-0.0538,-0.0538,-0.0538,-0.0538,-0.0538,0,0.0078,0.0099,0.0138,0.0152,0.0165,0.0187,0.0192,0.019,0.0185,0.0136,0.0119,0.0026,-0.0032,-0.0203,-0.0305,-0.0455,-0.0462,-0.0524,-0.048,-0.0459,-0.0482,-0.0475,-0.0468,-0.0538,-0.0538,-0.0538,-0.0538,0,0.0092,0.01,0.0123,0.0152,0.0167,0.0194,0.0206,0.0208,0.0197,0.0172,0.0128,0.0045,-0.0066,-0.0184,-0.0298,-0.0402,-0.049,-0.0524,-0.0525,-0.0484,-0.0459,-0.048,-0.0474,-0.0537,-0.0537,-0.0537,-0.0537,0,0.0084,0.0096,0.0114,0.0142,0.0163,0.0187,0.0205,0.0205,0.0205,0.0168,0.0155,0.0043,-0.0018,-0.0158,-0.0266,-0.036,-0.038,-0.0407,-0.0415,-0.0416,-0.0331,-0.0279,-0.0325,0,0,0,0,0,0.0071,0.0078,0.0102,0.0132,0.0157,0.0177,0.0201,0.0214,0.0211,0.0192,0.0182,0.0091,-0.0056,-0.0125,-0.0213,-0.0277,-0.041,-0.0384,-0.0448,-0.0536,-0.0536,-0.0451,0,0,0,0,0,0,0.0056,0.0071,0.009,0.0115,0.014,0.0169,0.019,0.0199,0.0199,0.0187,0.0118,0.0076,-0.0064,0.0001,-0.0211,-0.0244,-0.0295,-0.0455,-0.0457,-0.0536,-0.0536,-0.0536,-0.0449,0,0,0,0,0]}]]